Location: Brunsen
(51.8651°N, 9.8610°E)
Time: 20:02:50
(UTC+00:00)

CZ-2C R/B - Pass Details

Date: 12 August 2024
Orbit: 782 x 869 km, 98.3° (Epoch: 07 September)

Event Time Altitude Azimuth Distance (km) Brightness Sun altitude
Exits shadow 00:11:05 17° 125° (SE) 2,015 4.4 -22.5°
Maximum altitude 00:14:52 40° 64° (ENE) 1,220 3.8 -22.4°
Drops below altitude 10° 00:19:53 10° 357° (N) 2,446 6.1 -22.2°
Sets 00:22:20 0° 350° (N) 3,369 6.9 -22.1°
